Regional Weather Roundup
Issued by NWS Bismarck, ND

Home | Current Version | Previous Version | Text Only | Print | Product List | Glossary On
Versions: 1 2 3 4 5 6 7 8 9 10 11 12 13 14 15 16 17 18 19 20 21 22 23 24 25 26 27 28 29 30 31 32 33 34 35 36 37 38 39 40 41 42 43 44 45 46 47 48 49 50
000
ASUS43 KBIS 271410
RWRBIS

NWR BROADCAST TEXT
NATIONAL WEATHER SERVICE BISMARCK ND
900 AM CDT TUE JUN 27 2017

NOTE: "FAIR" INDICATES FEW OR NO CLOUDS BELOW 12,000 FEET WITH NO
SIGNIFICANT WEATHER AND/OR OBSTRUCTIONS TO VISIBILITY.


CITY           SKY/WX    TMP DP  RH WIND       PRES   REMARKS
WILLISTON      CLOUDY    69  42  37 S13       29.64F
MINOT          PTSUNNY   67  42  40 SE18G25   29.68F
MINOT AFB      MOSUNNY   67  43  41 S21G26    29.67F
BISMARCK       CLOUDY    64  45  49 S20       29.78F
DICKINSON      SUNNY     64  41  42 S20       29.69S
GARRISON         N/A     60  43  53 S14       29.73F
HETTINGER ARPT SUNNY     66  45  46 S18G25    29.73F
JAMESTOWN      MOSUNNY   62  42  47 S16G28    29.87F
HAZEN          FAIR      64  43  45 S12       29.75F
LINTON         FAIR     N/A N/A N/A S28G33    29.83F
MANDAN         FAIR      63  46  55 S21G29    29.77F
STANLEY        FAIR      63  43  48 S21G33    29.69F
TIOGA          FAIR      61  41  48 S31G39    29.63F
WATFORD CITY   FAIR      66  45  45 SE12      29.66F
$$

CITY           SKY/WX    TMP DP  RH WIND       PRES   REMARKS
GRAND FORKS    CLOUDY    67  46  47 S20G29    29.88F
GRAND FORKS AF MOSUNNY   63  44  51 S15       29.88F
DEVILS LAKE    MOSUNNY   63  45  51 S15       29.83F
FARGO          CLOUDY    64  44  48 S13       29.95F
CAVALIER       FAIR      63  45  51 S12       29.84F
GRAFTON        FAIR      64  46  52 S16G22    29.88F
GWINNER        CLOUDY    66  45  45 S20G25    29.94F
LANGDON          N/A     61  46  59 S18       29.83F
ROLLA            N/A     61  45  55 S17G24    29.78F
$$

CITY           SKY/WX    TMP DP  RH WIND       PRES   REMARKS
ABERDEEN       CLOUDY    61  44  53 S20G28    29.93F
MOBRIDGE       SUNNY     66  47  50 S24G30    29.80F
BUFFALO          N/A     66  48  52 S12       29.66F
RAPID CITY     SUNNY     69  55  60 S28G33    29.77F
GLASGOW        PTSUNNY   72  41  32 SE5       29.59S
SIDNEY         MOSUNNY   67  43  41 S13       29.64F
WOLF POINT     SUNNY     72  42  34 E3        29.58F
GLENDIVE       SUNNY     69  42  37 S8        29.64F
MILES CITY     MOSUNNY   71  43  36 SE5       29.63F
BAKER          MOSUNNY   67  42  40 SE13      29.69F
$$

CITY           SKY/WX    TMP DP  RH WIND       PRES   REMARKS
BILLINGS       CLOUDY    71  47  42 SW9       29.77R
GREAT FALLS    CLOUDY    65  50  58 SW15      29.76S
REGINA         MOSUNNY   66  48  52 SE15G23   29.55F
ESTEVAN        PTSUNNY   66  46  48 S12       29.62S
$$




USA.gov is the U.S. government's official web portal to all federal, state and local government web resources and services.